This is the latest recevied weather packets stored in our database for station/object OK9CPU-9. If no packets are shown the sender has not sent any weather packets the latest 10 day(s).
| Time | Temp. | Humidity | Pressure | Rain* | Wind** | Luminosity | Snow |
|---|---|---|---|---|---|---|---|
| 1787934154 | 30.56° C | 29% | 1012.1 hPa | - | - | - | - |
| 1787932164 | 31.67° C | 28% | 1012.6 hPa | - | - | - | - |
| 1787929179 | 35° C | 25% | 1013 hPa | - | - | - | - |
| 1787927189 | 36.11° C | 24% | 1013.1 hPa | - | - | - | - |
| 1787924203 | 36.67° C | 23% | 1013.3 hPa | - | - | - | - |
| 1787923208 | 37.22° C | 23% | 1013.3 hPa | - | - | - | - |
| 1787922213 | 36.67° C | 23% | 1013.5 hPa | - | - | - | - |
| 1787921218 | 36.67° C | 23% | 1013.6 hPa | - | - | - | - |
| 1787914253 | 38.89° C | 21% | 1014.7 hPa | - | - | - | - |
| 1787909278 | 38.89° C | 19% | 1016.3 hPa | - | - | - | - |
| 1787906293 | 35.56° C | 20% | 1016.5 hPa | - | - | - | - |
| 1787901317 | 28.33° C | 22% | 1017.6 hPa | - | - | - | - |
| 1787900322 | 25.56° C | 24% | 1017.5 hPa | - | - | - | - |
| 1787894352 | 20° C | 27% | 1017.2 hPa | - | - | - | - |
| 1787892362 | 17.22° C | 31% | 1017.4 hPa | - | - | - | - |
| 1787891367 | 16.67° C | 31% | 1017.5 hPa | - | - | - | - |
| 1787886392 | 16.67° C | 32% | 1017.3 hPa | - | - | - | - |
| 1787885397 | 16.67° C | 32% | 1017.2 hPa | - | - | - | - |
| 1787879427 | 17.78° C | 32% | 1017.2 hPa | - | - | - | - |
| 1787873457 | 18.89° C | 33% | 1018 hPa | - | - | - | - |
| 1787871467 | 19.44° C | 33% | 1017.9 hPa | - | - | - | - |
| 1787869476 | 20° C | 33% | 1018.1 hPa | - | - | - | - |
| 1787868481 | 20° C | 33% | 1018.3 hPa | - | - | - | - |
| 1787860521 | 22.78° C | 33% | 1018.2 hPa | - | - | - | - |
* Rain since midnight (hover to see other rain measurements)
** Current wind speed in m/s (hover to see current wind gust speed)